Location: Marstown
(39.5056°N, 77.0820°W)
Time: 12:36:19
(UTC-05:00)

Hubble Space Telescope - Visible Passes

Search period start: 17 November 2017 00:00
Search period end: 27 November 2017 00:00
Orbit: 537 x 541 km, 28.5° (Epoch: 16 November)

Date Brightness Start Highest point End Pass type
(mag) Time Alt. Az. Time Alt. Az. Time Alt. Az.
17 Nov 3.3 06:17:11 10° SSW 06:19:44 16° S 06:22:17 10° SE visible
18 Nov 3.2 06:06:44 10° SW 06:09:25 17° S 06:12:06 10° SE visible
19 Nov 3.6 04:19:27 11° SSE 04:19:27 11° SSE 04:19:57 10° SE visible
19 Nov 3.1 05:56:20 10° SW 05:59:06 17° S 06:01:51 10° SE visible
20 Nov 3.8 04:10:00 10° SE 04:10:00 10° SE 04:10:11 10° SE visible
20 Nov 3.0 05:45:59 10° SW 05:48:46 18° S 05:51:34 10° SE visible
21 Nov 3.0 05:35:52 11° SW 05:38:27 17° S 05:41:13 10° SE visible
22 Nov 2.9 05:26:19 13° SW 05:28:08 17° S 05:30:49 10° SE visible
23 Nov 2.9 05:16:45 15° SSW 05:17:48 16° S 05:20:20 10° SSE visible
24 Nov 3.0 05:07:10 15° SSW 05:07:27 15° S 05:09:48 10° SSE visible
25 Nov 3.2 04:57:36 13° S 04:57:36 13° S 04:59:08 10° SSE visible
26 Nov 3.5 04:48:01 10° S 04:48:01 10° S 04:48:16 10° S visible
